Napa County, CA

5:31 PM PDT on June 25, 2017 (GMT -0700)
Napa County

Weather History for KAPC - March, 2015

Change the Weather History Date:

Thursday, March 26, 2015

  Actual Average Record
Temperature  
Mean Temperature 62 °F 53 °F  
Max Temperature 80 °F 65 °F 80 °F (2015)
Min Temperature 43 °F 40 °F 34 °F (2000)
Degree Days  
Heating Degree Days 3    
Month to date heating degree days 255  
Since 1 July heating degree days 1983  
Cooling Degree Days 0    
Month to date cooling degree days 0  
Year to date cooling degree days 0  
Growing Degree Days 12 (Base 50)    
Moisture  
Dew Point 50 °F    
Average Humidity 70    
Maximum Humidity 100    
Minimum Humidity 39    
Precipitation  
Precipitation 0.00 in - 1.14 in (1940)
Month to date precipitation 0.07  
Year to date precipitation 2.44  
Sea Level Pressure  
Sea Level Pressure 30.10 in    
Wind  
Wind Speed 4 mph (ESE)    
Max Wind Speed 15 mph    
Max Gust Speed 20 mph    
Visibility 10 miles    
Events      
T = Trace of Precipitation, MM = Missing Value Source: NWS Daily Summary

Daily Weather History Graph

Daily Weather History Graph

Search for Another Location

Airport or City:

Trip Planner

Search our weather history database for the weather conditions in past years. The results will help you decide how hot, cold, wet, or windy it might be!

Date:

Astronomy

Mar. 26, 2015 Rise Set
Actual Time 7:03 AM PDT 7:26 PM PDT
Civil Twilight 6:37 AM PDT 7:53 PM PDT
Nautical Twilight 6:06 AM PDT 8:24 PM PDT
Astronomical Twilight 5:34 AM PDT 8:55 PM PDT
Moon 11:51 AM PDT 1:29 AM PDT
Length of Visible Light 13h 15m
Length of Day
12h 23m
Waxing Crescent, 45% of the Moon is Illuminated
Mar 26
Waxing Crescent
Mar 27
First Quarter
Apr 4
Full
Apr 11
Last Quarter
Apr 18
New

Hourly Weather History & Observations

Time (PDT) Temp. Dew Point Humidity Pressure Visibility Wind Dir Wind Speed Gust Speed Precip Events Conditions
12:54 AM 48.0 °F 48.0 °F 100% 30.13 in 9.0 mi Calm Calm - N/A   Clear
1:20 AM 46.9 °F 46.0 °F 97% 30.15 in 2.5 mi Calm Calm - N/A   Clear
1:27 AM 48.9 °F 48.0 °F 97% 30.15 in 10.0 mi Calm Calm - N/A   Clear
1:54 AM 46.0 °F 46.0 °F 100% 30.13 in 10.0 mi Calm Calm - N/A   Clear
2:54 AM 46.0 °F 45.0 °F 96% 30.12 in 10.0 mi Calm Calm - N/A   Clear
3:54 AM 45.0 °F 43.0 °F 93% 30.12 in 8.0 mi Calm Calm - N/A   Clear
4:54 AM 45.0 °F 43.0 °F 93% 30.12 in 10.0 mi Calm Calm - N/A   Clear
5:54 AM 44.1 °F 43.0 °F 96% 30.12 in 10.0 mi Calm Calm - N/A   Clear
6:54 AM 45.0 °F 45.0 °F 100% 30.13 in 10.0 mi Calm Calm - N/A   Clear
7:54 AM 48.9 °F 46.0 °F 90% 30.14 in 10.0 mi North 6.9 mph - N/A   Clear
8:54 AM 55.0 °F 50.0 °F 83% 30.15 in 10.0 mi NE 3.5 mph - N/A   Clear
9:54 AM 62.1 °F 52.0 °F 70% 30.16 in 9.0 mi Calm Calm - N/A   Clear
10:54 AM 64.9 °F 55.0 °F 70% 30.15 in 10.0 mi WSW 5.8 mph - N/A   Clear
11:54 AM 69.1 °F 57.0 °F 65% 30.14 in 10.0 mi WSW 5.8 mph - N/A   Clear
12:54 PM 77.0 °F 54.0 °F 45% 30.12 in 10.0 mi ENE 6.9 mph - N/A   Clear
1:54 PM 79.0 °F 52.0 °F 39% 30.09 in 10.0 mi East 10.4 mph - N/A   Clear
2:54 PM 79.0 °F 54.0 °F 42% 30.06 in 10.0 mi East 11.5 mph - N/A   Clear
3:54 PM 79.0 °F 53.1 °F 40% 30.04 in 10.0 mi East 9.2 mph - N/A   Clear
4:54 PM 78.1 °F 53.1 °F 42% 30.04 in 10.0 mi ESE 6.9 mph - N/A   Clear
5:54 PM 77.0 °F 55.0 °F 47% 30.03 in 10.0 mi SE 6.9 mph - N/A   Clear
6:54 PM 73.9 °F 57.0 °F 55% 30.03 in 10.0 mi SE 4.6 mph - N/A   Clear
7:54 PM 66.0 °F 53.1 °F 63% 30.04 in 10.0 mi Calm Calm - N/A   Clear
8:54 PM 61.0 °F 52.0 °F 72% 30.05 in 10.0 mi East 4.6 mph - N/A   Clear
9:54 PM 57.0 °F 51.1 °F 81% 30.06 in 10.0 mi ESE 4.6 mph - N/A   Clear
10:54 PM 55.9 °F 50.0 °F 80% 30.07 in 10.0 mi ESE 3.5 mph - N/A   Clear
11:54 PM 52.0 °F 48.9 °F 89% 30.07 in 10.0 mi East 3.5 mph - N/A   Clear